Location: Newark
(41.0000°N, 28.9500°W)
Time: 02:36:01
(UTC+00:00)

N. Korean satellite - Pass Details

Date: 30 January 2020
Orbit: 456 x 505 km, 97.2° (Epoch: 26 February)

Event Time Altitude Azimuth Distance (km) Brightness Sun altitude
Rises 06:44:42 0° 32° (NNE) 2,562 10.6 -27.3°
Reaches altitude 10° 06:47:30 10° 56° (NE) 1,686 10.0 -26.8°
Maximum altitude 06:49:39 15° 93° (E) 1,405 9.8 -26.4°
Drops below altitude 10° 06:51:49 10° 129° (SE) 1,692 10.0 -26.0°
Sets 06:54:37 0° 153° (SSE) 2,577 10.6 -25.4°
